"startDT [UTC]","vpos","CH4 [ppm]","stdev(CH4) [ppm]","CO2 [ppm]","stdev(CO2) [ppm]","H2O_reported [%]","stdev(H2O_reported)","CavityPressure [torr]","CavityTemp [C]","OutletValve","CH4_dry [ppm]","CO2_dry [ppm]","DasTemp [C]","EtalonTemp [C]","WarmBoxTemp [C]","MPVPosition","T_ECpre [C]","T_EC1 [C]","T_EC2 [C]","p_inlet [hPa]","p_in [hPa]","p_out [hPa]","T_inlet [C]","RH_inlet [%]","dwpt_inlet [C]","T_vent [C]","RH_vent [%]","dwpt_vent [C]","flow_vent [l min-1]","flow_inlet [l min-1]","dwpt_sample [C]","T_room [C]"
2015-02-05 00:00:00,0.0,1.96393,0.00030,406.924,0.033,0.0177,0.0013,139.997,45.000,27738.50134,1.96426,407.010,30.192,45.069,45.000,0.00,0.09,-272.70,-272.74,-11,14,2,17.5,0.6,-44.4,17.9,3.2,-27.3,5.73,2.55,-25.0,23.9
2015-02-05 00:01:00,0.0,1.96381,0.00033,406.885,0.039,0.0180,0.0015,140.001,45.000,27740.83948,1.96417,406.972,30.196,45.069,45.000,0.00,0.09,-272.68,-272.75,-11,13,2,17.5,0.6,-44.6,17.9,3.2,-27.2,5.73,2.43,-25.0,23.9
2015-02-05 00:02:00,0.0,1.96386,0.00038,406.903,0.027,0.0172,0.0020,139.999,45.000,27738.61485,1.96419,406.988,30.188,45.069,45.000,0.00,0.09,-272.69,-272.74,-11,14,2,17.5,0.6,-44.7,17.9,3.2,-27.3,5.73,2.55,-25.0,23.9
2015-02-05 00:03:00,0.0,1.96386,0.00040,406.910,0.036,0.0175,0.0011,139.998,45.000,27738.22726,1.96421,406.997,30.188,45.069,45.000,0.00,0.09,-272.70,-272.75,-11,14,1,17.5,0.6,-44.7,17.9,3.2,-27.3,5.73,2.52,-25.0,23.9
2015-02-05 00:04:00,0.0,1.96376,0.00035,406.895,0.032,0.0170,0.0023,140.000,45.000,27738.37414,1.96409,406.978,30.187,45.069,45.000,0.00,0.09,-272.69,-272.75,-11,13,2,17.5,0.6,-44.7,17.9,3.2,-27.3,5.73,2.44,-25.0,23.9
2015-02-05 00:05:00,0.0,1.96392,0.00030,406.881,0.025,0.0170,0.0015,140.000,45.000,27739.54591,1.96423,406.964,30.188,45.069,45.000,0.00,0.09,-272.69,-272.74,-11,14,2,17.5,0.6,-44.8,17.9,3.2,-27.2,5.73,2.57,-25.0,23.9
2015-02-05 00:06:00,0.0,1.96356,0.00038,406.890,0.021,0.0177,0.0017,140.000,45.000,27739.02626,1.96394,406.975,30.189,45.069,45.000,0.00,0.09,-272.69,-272.74,-11,13,2,17.5,0.6,-44.7,17.9,3.2,-27.3,5.73,2.46,-25.1,23.9
2015-02-05 00:07:00,0.0,1.96344,0.00031,406.890,0.032,0.0170,0.0020,139.997,45.000,27738.25142,1.96376,406.973,30.188,45.069,45.000,0.00,0.09,-272.69,-272.75,-11,14,2,17.5,0.6,-44.6,17.9,3.2,-27.3,5.73,2.48,-25.1,23.9
2015-02-05 00:08:00,0.0,1.96369,0.00044,406.899,0.029,0.0172,0.0017,140.001,45.000,27737.62684,1.96399,406.983,30.188,45.069,45.000,0.00,0.09,-272.69,-272.74,-11,13,2,17.5,0.6,-44.8,17.9,3.2,-27.3,5.73,2.56,-25.1,23.9
2015-02-05 00:09:00,0.0,1.96362,0.00036,406.896,0.033,0.0177,0.0022,139.999,45.000,27737.49027,1.96396,406.980,30.175,45.069,45.000,0.00,0.09,-272.69,-272.74,-11,14,2,17.5,0.6,-44.7,17.9,3.2,-27.3,5.73,2.43,-25.1,23.9
2015-02-05 00:10:00,0.0,1.96391,0.00029,406.901,0.029,0.0172,0.0019,139.999,45.000,27736.91717,1.96424,406.986,30.161,45.069,45.000,0.00,0.09,-272.70,-272.75,-11,14,2,17.5,0.6,-44.8,17.9,3.2,-27.3,5.73,2.55,-25.1,23.9
2015-02-05 00:11:00,0.0,1.96394,0.00038,406.916,0.037,0.0176,0.0019,140.000,45.000,27736.26164,1.96429,407.003,30.138,45.069,45.000,0.00,0.09,-272.69,-272.75,-11,13,2,17.5,0.6,-44.7,17.9,3.2,-27.3,5.73,2.51,-25.1,23.9
2015-02-05 00:12:00,0.0,1.96402,0.00036,406.891,0.023,0.0178,0.0014,140.002,45.000,27736.91898,1.96436,406.978,30.126,45.069,45.000,0.00,0.09,-272.68,-272.75,-11,14,2,17.5,0.6,-44.8,17.9,3.2,-27.3,5.73,2.45,-25.1,23.9
2015-02-05 00:13:00,0.0,1.96398,0.00036,406.930,0.029,0.0181,0.0019,139.997,45.000,27735.25124,1.96433,407.019,30.139,45.069,45.000,0.00,0.09,-272.69,-272.75,-11,13,2,17.5,0.6,-44.6,17.9,3.2,-27.3,5.73,2.58,-25.1,23.9
2015-02-05 00:14:00,0.0,1.96415,0.00039,406.947,0.041,0.0175,0.0023,139.998,45.000,27736.11102,1.96450,407.032,30.138,45.069,45.000,0.00,0.09,-272.69,-272.74,-11,14,2,17.5,0.6,-44.1,17.9,3.2,-27.3,5.73,2.45,-25.1,23.9
2015-02-05 00:15:00,0.0,1.96446,0.00036,406.942,0.033,0.0179,0.0019,140.001,45.000,27736.61811,1.96482,407.030,30.135,45.069,45.000,0.00,0.09,-272.68,-272.75,-11,13,2,17.4,0.6,-43.9,17.9,3.2,-27.3,5.73,2.51,-25.1,23.9
2015-02-05 00:16:00,0.0,1.96457,0.00034,406.972,0.037,0.0187,0.0018,140.002,45.000,27736.52182,1.96490,407.060,30.124,45.069,45.000,0.00,0.09,-272.70,-272.74,-11,14,1,17.4,0.6,-43.9,17.9,3.2,-27.3,5.73,2.54,-25.1,23.8
2015-02-05 00:17:00,0.0,1.96463,0.00039,406.955,0.033,0.0184,0.0019,140.000,45.000,27736.48734,1.96497,407.047,30.125,45.069,45.000,0.00,0.09,-272.69,-272.75,-11,13,2,17.5,0.6,-43.9,17.9,3.2,-27.3,5.73,2.43,-25.1,23.8
2015-02-05 00:18:00,0.0,1.96442,0.00033,406.958,0.022,0.0178,0.0020,139.999,45.000,27735.67672,1.96478,407.046,30.124,45.069,45.000,0.00,0.09,-272.69,-272.74,-10,13,2,17.5,0.6,-43.8,17.9,3.2,-27.3,5.73,2.57,-25.1,23.8
2015-02-05 00:19:00,0.0,1.96434,0.00034,406.940,0.020,0.0175,0.0019,140.000,45.000,27736.88686,1.96468,407.026,30.124,45.069,45.000,0.00,0.09,-272.69,-272.74,-11,14,2,17.5,0.6,-44.3,17.9,3.2,-27.3,5.73,2.48,-25.1,23.9
2015-02-05 00:20:00,0.0,1.96438,0.00030,406.966,0.029,0.0182,0.0024,140.002,45.000,27736.57859,1.96473,407.055,30.125,45.069,45.000,0.00,0.09,-272.68,-272.75,-10,13,2,17.5,0.6,-44.0,17.9,3.2,-27.3,5.73,2.47,-25.1,23.9
2015-02-05 00:21:00,0.0,1.96430,0.00041,406.959,0.023,0.0183,0.0017,140.002,45.000,27737.32599,1.96467,407.047,30.127,45.069,45.000,0.00,0.09,-272.70,-272.74,-11,14,2,17.5,0.6,-43.8,17.9,3.2,-27.3,5.73,2.57,-25.1,23.9
2015-02-05 00:22:00,0.0,1.96427,0.00037,406.934,0.024,0.0177,0.0018,139.998,45.000,27734.37058,1.96460,407.021,30.126,45.069,45.000,0.00,0.09,-272.68,-272.74,-11,13,2,17.5,0.6,-44.0,17.9,3.2,-27.3,5.73,2.43,-25.1,23.8
2015-02-05 00:23:00,0.0,1.96424,0.00047,406.924,0.028,0.0179,0.0017,140.002,45.000,27736.04271,1.96457,407.011,30.122,45.069,45.000,0.00,0.09,-272.69,-272.75,-11,14,2,17.5,0.6,-44.3,17.9,3.2,-27.3,5.73,2.54,-25.1,23.8
2015-02-05 00:24:00,0.0,1.96407,0.00032,406.954,0.034,0.0182,0.0019,140.004,45.000,27736.94718,1.96443,407.044,30.114,45.069,45.000,0.00,0.09,-272.70,-272.75,-11,13,2,17.4,0.6,-44.2,17.9,3.2,-27.3,5.73,2.51,-25.1,23.8
2015-02-05 00:25:00,0.0,1.96413,0.00031,406.934,0.027,0.0175,0.0022,140.000,45.000,27737.22923,1.96449,407.019,30.094,45.069,45.000,0.00,0.09,-272.68,-272.75,-11,14,2,17.4,0.6,-44.4,17.9,3.2,-27.3,5.73,2.45,-25.1,23.8
2015-02-05 00:26:00,0.0,1.96410,0.00038,406.932,0.027,0.0186,0.0023,140.001,45.000,27739.51200,1.96447,407.023,30.117,45.069,45.000,0.00,0.09,-272.69,-272.75,-11,13,2,17.4,0.6,-44.3,17.9,3.2,-27.3,5.73,2.58,-25.1,23.8
2015-02-05 00:27:00,0.0,1.96385,0.00036,406.909,0.014,0.0181,0.0019,140.001,45.000,27740.08169,1.96418,406.998,30.124,45.069,45.000,0.00,0.09,-272.70,-272.75,-10,13,2,17.4,0.6,-44.3,17.9,3.2,-27.3,5.73,2.45,-25.1,23.8
2015-02-05 00:28:00,0.0,1.96410,0.00039,406.931,0.032,0.0167,0.0017,139.999,45.000,27737.82369,1.96443,407.014,30.120,45.069,45.000,0.00,0.09,-272.68,-272.74,-11,13,2,17.4,0.6,-44.6,17.9,3.2,-27.3,5.73,2.51,-25.1,23.8
2015-02-05 00:29:00,0.0,1.96395,0.00040,406.923,0.029,0.0172,0.0019,139.999,45.000,27737.65003,1.96429,407.007,30.114,45.069,45.000,0.00,0.09,-272.70,-272.73,-10,13,2,17.4,0.6,-44.8,17.8,3.2,-27.3,5.73,2.54,-25.1,23.8
2015-02-05 00:30:00,0.0,1.96341,0.00032,406.901,0.036,0.0174,0.0018,139.998,45.000,27738.48862,1.96376,406.985,30.095,45.069,45.000,0.00,0.09,-272.69,-272.75,-11,14,2,17.4,0.6,-44.8,17.8,3.2,-27.3,5.73,2.43,-25.1,23.8
2015-02-05 00:31:00,0.0,1.96356,0.00054,406.864,0.024,0.0170,0.0010,140.002,45.000,27740.30781,1.96386,406.949,30.067,45.069,45.000,0.00,0.09,-272.70,-272.75,-11,13,2,17.4,0.6,-44.7,17.9,3.2,-27.3,5.73,2.57,-25.1,23.8
2015-02-05 00:32:00,0.0,1.96326,0.00031,406.880,0.025,0.0167,0.0018,139.997,45.000,27739.38562,1.96360,406.962,30.066,45.069,45.001,0.00,0.09,-272.69,-272.74,-11,14,2,17.4,0.6,-44.9,17.9,3.2,-27.3,5.73,2.47,-25.1,23.8
2015-02-05 00:33:00,0.0,1.96344,0.00041,406.884,0.030,0.0174,0.0017,140.001,45.000,27739.88936,1.96379,406.968,30.071,45.069,45.000,0.00,0.09,-272.68,-272.75,-11,13,2,17.5,0.5,-45.2,17.9,3.2,-27.3,5.73,2.48,-25.1,23.8
2015-02-05 00:34:00,0.0,1.96347,0.00029,406.865,0.029,0.0163,0.0018,140.002,45.000,27739.11467,1.96376,406.946,30.090,45.069,45.001,0.00,0.09,-272.69,-272.75,-11,14,2,17.5,0.5,-45.2,17.9,3.2,-27.3,5.73,2.57,-25.1,23.8
2015-02-05 00:35:00,0.0,1.96342,0.00030,406.867,0.028,0.0161,0.0010,140.000,45.000,27739.02848,1.96375,406.946,30.068,45.069,45.000,0.00,0.09,-272.69,-272.74,-11,13,2,17.5,0.5,-45.3,17.9,3.2,-27.3,5.73,2.43,-25.1,23.8
2015-02-05 00:36:00,0.0,1.96341,0.00027,406.872,0.027,0.0172,0.0020,140.000,45.000,27739.25773,1.96375,406.956,30.102,45.069,45.000,0.00,0.09,-272.69,-272.75,-10,13,2,17.5,0.5,-45.2,17.9,3.2,-27.3,5.73,2.56,-25.1,23.8
2015-02-05 00:37:00,0.0,1.96345,0.00029,406.871,0.029,0.0171,0.0019,139.998,45.000,27739.00713,1.96379,406.954,30.108,45.069,45.000,0.00,0.09,-272.70,-272.75,-11,13,2,17.5,0.5,-45.1,17.9,3.2,-27.3,5.73,2.50,-25.1,23.8
2015-02-05 00:38:00,0.0,1.96370,0.00043,406.871,0.038,0.0161,0.0018,140.000,45.000,27737.19688,1.96397,406.951,30.090,45.069,45.000,0.00,0.09,-272.68,-272.75,-10,13,2,17.5,0.5,-45.2,17.9,3.2,-27.3,5.73,2.45,-25.2,23.8
2015-02-05 00:39:00,0.0,1.96383,0.00043,406.870,0.040,0.0172,0.0015,139.999,45.000,27737.77538,1.96420,406.953,30.068,45.069,45.000,0.00,0.09,-272.69,-272.75,-11,13,2,17.5,0.5,-45.3,17.9,3.2,-27.3,5.73,2.58,-25.1,23.8
2015-02-05 00:40:00,0.0,1.96366,0.00040,406.868,0.019,0.0160,0.0014,140.000,45.000,27736.88145,1.96396,406.947,30.063,45.069,45.000,0.00,0.09,-272.69,-272.76,-11,13,2,17.5,0.5,-45.2,17.9,3.2,-27.3,5.73,2.44,-25.1,23.8
2015-02-05 00:41:00,0.0,1.96390,0.00037,406.864,0.029,0.0167,0.0011,139.999,45.000,27736.97856,1.96421,406.945,30.063,45.069,45.000,0.00,0.09,-272.69,-272.75,-11,14,2,17.5,0.5,-45.2,17.9,3.2,-27.3,5.73,2.52,-25.1,23.8
2015-02-05 00:42:00,0.0,1.96399,0.00041,406.879,0.037,0.0172,0.0026,140.002,45.000,27736.57566,1.96432,406.962,30.063,45.069,45.000,0.00,0.09,-272.69,-272.74,-11,13,2,17.4,0.5,-45.3,17.8,3.2,-27.3,5.73,2.53,-25.1,23.8
2015-02-05 00:43:00,0.0,1.96406,0.00042,406.877,0.033,0.0171,0.0021,139.999,45.000,27735.23754,1.96439,406.961,30.062,45.069,45.000,0.00,0.09,-272.69,-272.75,-11,13,2,17.4,0.5,-45.2,17.9,3.2,-27.3,5.73,2.44,-25.1,23.8
2015-02-05 00:44:00,0.0,1.96403,0.00039,406.878,0.028,0.0168,0.0014,139.999,45.000,27733.56309,1.96437,406.959,30.063,45.069,45.000,0.00,0.09,-272.70,-272.75,-11,13,2,17.4,0.5,-45.2,17.8,3.2,-27.3,5.73,2.58,-25.1,23.8
2015-02-05 00:45:00,0.0,1.96388,0.00044,406.897,0.035,0.0173,0.0010,140.001,45.000,27735.85184,1.96423,406.982,30.060,45.069,45.000,0.00,0.09,-272.69,-272.75,-10,13,2,17.4,0.5,-45.1,17.8,3.2,-27.3,5.73,2.46,-25.1,23.8
2015-02-05 00:46:00,0.0,1.96397,0.00054,406.862,0.037,0.0169,0.0023,140.001,45.000,27734.05995,1.96424,406.943,30.063,45.068,45.000,0.00,0.09,-272.68,-272.75,-11,13,2,17.4,0.6,-44.8,17.8,3.2,-27.4,5.73,2.49,-25.2,23.8
2015-02-05 00:47:00,0.0,1.96423,0.00044,406.870,0.027,0.0179,0.0018,140.001,45.000,27733.53533,1.96460,406.959,30.061,45.069,45.000,0.00,0.09,-272.69,-272.75,-10,13,2,17.4,0.6,-44.7,17.8,3.2,-27.3,5.73,2.56,-25.2,23.8
2015-02-05 00:48:00,0.0,1.96410,0.00050,406.864,0.024,0.0166,0.0013,140.000,45.000,27734.86979,1.96442,406.946,30.041,45.069,45.000,0.00,0.09,-272.69,-272.75,-11,13,2,17.5,0.6,-44.7,17.9,3.2,-27.3,5.73,2.43,-25.2,23.8
2015-02-05 00:49:00,0.0,1.96381,0.00034,406.864,0.030,0.0168,0.0028,139.999,45.000,27736.19817,1.96414,406.944,30.030,45.069,45.000,0.00,0.09,-272.68,-272.75,-11,13,2,17.5,0.6,-44.8,17.8,3.2,-27.3,5.73,2.56,-25.2,23.8
2015-02-05 00:50:00,0.0,1.96377,0.00042,406.863,0.019,0.0166,0.0015,139.999,45.000,27734.94434,1.96411,406.947,30.018,45.069,45.000,0.00,0.09,-272.69,-272.74,-11,13,2,17.5,0.6,-44.7,17.9,3.2,-27.3,5.73,2.50,-25.2,23.8
2015-02-05 00:51:00,0.0,1.96380,0.00034,406.865,0.028,0.0167,0.0012,140.001,45.000,27735.35595,1.96411,406.948,30.026,45.069,45.001,0.00,0.09,-272.69,-272.75,-11,13,2,17.5,0.6,-44.6,17.9,3.2,-27.3,5.73,2.46,-25.2,23.8
2015-02-05 00:52:00,0.0,1.96388,0.00030,406.845,0.035,0.0169,0.0014,140.001,45.000,27734.91886,1.96422,406.927,30.053,45.069,45.000,0.00,0.09,-272.69,-272.75,-11,13,2,17.5,0.6,-44.8,17.9,3.2,-27.3,5.73,2.58,-25.2,23.8
2015-02-05 00:53:00,0.0,1.96395,0.00038,406.842,0.026,0.0170,0.0016,139.997,45.000,27733.19692,1.96427,406.925,30.064,45.069,45.000,0.00,0.09,-272.69,-272.75,-11,13,2,17.5,0.6,-44.8,17.9,3.2,-27.3,5.73,2.44,-25.2,23.8
2015-02-05 00:54:00,0.0,1.96373,0.00042,406.862,0.030,0.0175,0.0019,139.998,45.000,27733.52269,1.96408,406.946,30.063,45.069,45.000,0.00,0.09,-272.69,-272.75,-10,13,2,17.5,0.6,-44.7,17.8,3.2,-27.4,5.73,2.52,-25.2,23.8
2015-02-05 00:55:00,0.0,1.96384,0.00035,406.867,0.030,0.0163,0.0013,140.001,45.000,27734.08211,1.96417,406.948,30.061,45.069,45.000,0.00,0.09,-272.69,-272.74,-11,13,2,17.4,0.6,-44.8,17.8,3.2,-27.4,5.73,2.54,-25.2,23.8
2015-02-05 00:56:00,0.0,1.96341,0.00045,406.868,0.033,0.0159,0.0017,139.998,45.000,27734.45032,1.96371,406.947,30.053,45.068,45.000,0.00,0.09,-272.69,-272.74,-10,13,2,17.4,0.6,-44.8,17.8,3.2,-27.4,5.73,2.44,-25.2,23.8
2015-02-05 00:57:00,0.0,1.96332,0.00042,406.854,0.026,0.0173,0.0020,139.999,45.000,27733.65647,1.96365,406.937,30.067,45.069,45.000,0.00,0.09,-272.69,-272.75,-11,13,2,17.4,0.6,-44.7,17.8,3.2,-27.4,5.73,2.58,-25.2,23.8
2015-02-05 00:58:00,0.0,1.96338,0.00032,406.881,0.029,0.0166,0.0021,140.000,45.000,27734.76766,1.96371,406.962,30.094,45.068,45.000,0.00,0.09,-272.70,-272.75,-11,13,2,17.4,0.6,-44.7,17.8,3.2,-27.3,5.73,2.47,-25.2,23.8
2015-02-05 00:59:00,0.0,1.96355,0.00039,406.900,0.042,0.0175,0.0017,139.996,45.000,27733.15076,1.96387,406.985,30.083,45.068,45.000,0.00,0.09,-272.68,-272.74,-11,13,2,17.4,0.6,-44.8,17.8,3.2,-27.4,5.73,2.48,-25.2,23.8
2015-02-05 01:00:00,0.0,1.96364,0.00034,406.889,0.035,0.0181,0.0013,140.001,45.000,27734.71215,1.96398,406.978,30.065,45.068,45.000,0.00,0.09,-272.69,-272.74,-11,13,2,17.4,0.6,-44.3,17.8,3.2,-27.4,5.73,2.57,-25.2,23.8
2015-02-05 01:01:00,0.0,1.96348,0.00043,406.897,0.039,0.0174,0.0017,139.999,45.000,27736.88167,1.96386,406.982,30.063,45.069,45.000,0.00,0.09,-272.69,-272.75,-11,13,2,17.4,0.6,-44.4,17.8,3.2,-27.3,5.73,2.43,-25.2,23.8
2015-02-05 01:02:00,0.0,1.96371,0.00030,406.900,0.026,0.0177,0.0018,140.000,45.000,27734.52613,1.96401,406.987,30.063,45.069,45.000,0.00,0.09,-272.69,-272.74,-11,13,2,17.4,0.6,-44.4,17.8,3.2,-27.4,5.73,2.54,-25.2,23.8
2015-02-05 01:03:00,0.0,1.96388,0.00049,406.876,0.027,0.0179,0.0023,139.997,45.000,27735.43131,1.96421,406.963,30.061,45.069,45.000,0.00,0.09,-272.69,-272.74,-10,13,2,17.4,0.6,-44.4,17.8,3.2,-27.4,5.73,2.53,-25.2,23.8
2015-02-05 01:04:00,0.0,1.96413,0.00053,406.906,0.037,0.0176,0.0012,139.999,45.000,27734.96567,1.96451,406.991,30.061,45.069,45.000,0.00,0.09,-272.68,-272.76,-11,13,2,17.4,0.6,-44.2,17.8,3.2,-27.4,5.73,2.44,-25.2,23.8
2015-02-05 01:05:00,0.0,1.96363,0.00048,406.911,0.039,0.0171,0.0017,139.998,45.000,27737.43774,1.96396,406.996,30.057,45.069,45.000,0.00,0.09,-272.69,-272.75,-11,13,2,17.4,0.6,-44.3,17.8,3.2,-27.4,5.73,2.58,-25.2,23.8
2015-02-05 01:06:00,0.0,1.96366,0.00038,406.905,0.028,0.0179,0.0029,139.998,45.000,27736.03666,1.96395,406.994,30.063,45.069,45.000,0.00,0.09,-272.69,-272.74,-11,14,2,17.4,0.6,-44.3,17.8,3.2,-27.4,5.73,2.47,-25.2,23.8
2015-02-05 01:07:00,0.0,1.96360,0.00034,406.893,0.039,0.0172,0.0017,140.000,45.000,27736.56274,1.96396,406.975,30.066,45.069,45.000,0.00,0.09,-272.68,-272.75,-11,13,2,17.4,0.6,-44.1,17.8,3.2,-27.4,5.73,2.48,-25.2,23.8
2015-02-05 01:08:00,0.0,1.96377,0.00033,406.900,0.036,0.0181,0.0018,140.001,45.000,27735.95030,1.96411,406.990,30.064,45.069,45.000,0.00,0.09,-272.70,-272.75,-11,13,2,17.4,0.6,-43.9,17.9,3.2,-27.4,5.73,2.57,-25.2,23.8
2015-02-05 01:09:00,0.0,1.96386,0.00024,406.918,0.032,0.0176,0.0017,140.002,45.000,27737.52932,1.96421,407.004,30.063,45.069,45.000,0.00,0.09,-272.69,-272.75,-11,13,2,17.4,0.6,-44.3,17.8,3.2,-27.4,5.73,2.44,-25.2,23.8
2015-02-05 01:10:00,0.0,1.96356,0.00024,406.912,0.027,0.0177,0.0021,140.002,45.000,27739.13509,1.96390,406.996,30.046,45.069,45.000,0.00,0.09,-272.69,-272.75,-10,13,2,17.4,0.6,-44.3,17.8,3.2,-27.4,5.73,2.54,-25.2,23.8
2015-02-05 01:11:00,0.0,1.96353,0.00040,406.908,0.037,0.0179,0.0014,139.999,45.000,27739.77373,1.96388,406.997,30.013,45.069,45.000,0.00,0.09,-272.70,-272.75,-11,13,2,17.4,0.6,-44.4,17.8,3.2,-27.4,5.73,2.53,-25.2,23.8
2015-02-05 01:12:00,0.0,1.96380,0.00047,406.912,0.040,0.0174,0.0015,140.002,45.000,27739.41764,1.96414,406.997,30.007,45.069,45.001,0.00,0.09,-272.69,-272.75,-10,13,2,17.4,0.6,-44.3,17.8,3.2,-27.4,5.73,2.44,-25.2,23.8
2015-02-05 01:13:00,0.0,1.96398,0.00035,406.933,0.026,0.0180,0.0015,139.995,45.000,27737.55976,1.96432,407.020,30.022,45.069,45.000,0.00,0.09,-272.68,-272.74,-11,13,2,17.4,0.6,-44.3,17.8,3.2,-27.4,5.73,2.57,-25.2,23.8
2015-02-05 01:14:00,0.0,1.96392,0.00040,406.910,0.036,0.0169,0.0016,140.000,45.000,27738.96395,1.96420,406.992,30.041,45.069,45.000,0.00,0.09,-272.69,-272.75,-11,13,2,17.4,0.6,-44.4,17.8,3.2,-27.4,5.73,2.49,-25.2,23.8
2015-02-05 01:15:00,0.0,1.96392,0.00035,406.909,0.035,0.0171,0.0016,139.998,45.000,27738.46449,1.96427,406.992,30.061,45.069,45.000,0.00,0.09,-272.69,-272.75,-11,13,2,17.4,0.6,-44.4,17.8,3.2,-27.4,5.73,2.46,-25.2,23.8
2015-02-05 01:16:00,0.0,1.96384,0.00041,406.901,0.027,0.0175,0.0017,140.002,45.000,27737.51702,1.96420,406.987,30.055,45.069,45.000,0.00,0.09,-272.69,-272.74,-11,13,2,17.3,0.6,-44.4,17.8,3.2,-27.4,5.73,2.58,-25.2,23.8
2015-02-05 01:17:00,0.0,1.96421,0.00040,406.909,0.042,0.0178,0.0017,140.003,45.000,27737.62051,1.96452,406.995,30.054,45.069,45.000,0.00,0.09,-272.69,-272.74,-10,13,2,17.4,0.6,-44.3,17.8,3.2,-27.4,5.73,2.45,-25.2,23.8
2015-02-05 01:18:00,0.0,1.96413,0.00043,406.916,0.041,0.0175,0.0019,140.004,45.000,27738.07438,1.96449,407.001,30.045,45.069,45.000,0.00,0.09,-272.69,-272.76,-11,13,2,17.4,0.6,-44.3,17.8,3.2,-27.4,5.73,2.52,-25.2,23.8
2015-02-05 01:19:00,0.0,1.96418,0.00032,406.905,0.033,0.0177,0.0022,140.000,45.000,27737.18098,1.96453,406.992,30.037,45.069,45.000,0.00,0.09,-272.69,-272.75,-11,13,2,17.4,0.6,-44.4,17.8,3.2,-27.4,5.73,2.55,-25.2,23.8
2015-02-05 01:20:00,0.0,1.96387,0.00044,406.880,0.033,0.0180,0.0025,140.001,45.000,27738.85129,1.96425,406.970,30.054,45.069,45.000,0.00,0.09,-272.68,-272.75,-11,14,2,17.4,0.6,-44.3,17.8,3.2,-27.4,5.73,2.43,-25.2,23.8
2015-02-05 01:21:00,0.0,1.96376,0.00031,406.890,0.029,0.0164,0.0011,139.997,45.000,27737.87997,1.96405,406.969,30.068,45.069,45.000,0.00,0.09,-272.69,-272.75,-11,13,2,17.4,0.6,-44.3,17.8,3.2,-27.4,5.73,2.56,-25.2,23.8
2015-02-05 01:22:00,0.0,1.96394,0.00030,406.899,0.030,0.0178,0.0014,139.999,45.000,27738.42077,1.96427,406.986,30.106,45.069,45.000,0.00,0.09,-272.69,-272.74,-10,13,2,17.4,0.6,-44.3,17.8,3.2,-27.4,5.73,2.51,-25.2,23.8
2015-02-05 01:23:00,0.0,1.96420,0.00039,406.908,0.031,0.0169,0.0021,140.001,45.000,27739.08475,1.96454,406.990,30.107,45.069,45.000,0.00,0.09,-272.69,-272.74,-11,13,2,17.4,0.6,-44.4,17.8,3.2,-27.4,5.73,2.45,-25.2,23.8
2015-02-05 01:24:00,0.0,1.96418,0.00037,406.914,0.033,0.0177,0.0020,139.997,45.000,27737.77900,1.96452,407.000,30.110,45.068,45.000,0.00,0.09,-272.70,-272.75,-10,13,2,17.4,0.6,-44.3,17.8,3.2,-27.4,5.73,2.58,-25.2,23.8
2015-02-05 01:25:00,0.0,1.96430,0.00036,406.921,0.029,0.0178,0.0013,140.003,45.000,27738.82838,1.96461,407.008,30.095,45.069,45.000,0.00,0.09,-272.69,-272.75,-11,14,2,17.4,0.6,-44.3,17.8,3.2,-27.4,5.73,2.47,-25.2,23.8
2015-02-05 01:26:00,0.0,1.96415,0.00041,406.895,0.033,0.0173,0.0013,140.000,45.000,27736.45857,1.96450,406.980,30.067,45.068,45.000,0.00,0.09,-272.68,-272.75,-11,13,2,17.4,0.6,-44.4,17.8,3.2,-27.4,5.73,2.48,-25.2,23.8
2015-02-05 01:27:00,0.0,1.96413,0.00036,406.914,0.023,0.0181,0.0025,140.001,45.000,27737.28137,1.96449,407.002,30.062,45.069,45.000,0.00,0.09,-272.69,-272.74,-11,13,2,17.4,0.6,-44.4,17.8,3.2,-27.4,5.73,2.57,-25.2,23.8
2015-02-05 01:28:00,0.0,1.96363,0.00039,406.917,0.038,0.0172,0.0012,140.000,45.000,27737.20613,1.96397,407.002,30.053,45.069,45.000,0.00,0.09,-272.69,-272.75,-11,13,2,17.3,0.6,-44.3,17.8,3.2,-27.4,5.73,2.44,-25.2,23.8
2015-02-05 01:29:00,0.0,1.96371,0.00030,406.881,0.035,0.0176,0.0016,140.001,45.000,27739.15764,1.96405,406.967,30.046,45.069,45.000,0.00,0.09,-272.68,-272.75,-10,13,2,17.3,0.6,-44.4,17.8,3.2,-27.4,5.73,2.53,-25.2,23.8
2015-02-05 01:30:00,0.0,1.96375,0.00030,406.873,0.027,0.0170,0.0016,140.001,45.000,27739.66936,1.96407,406.957,30.021,45.069,45.000,0.00,0.09,-272.70,-272.74,-11,13,2,17.3,0.6,-44.4,17.8,3.2,-27.4,5.73,2.54,-25.2,23.8
2015-02-05 01:31:00,0.0,1.96386,0.00027,406.879,0.024,0.0184,0.0015,140.002,45.000,27739.12515,1.96424,406.969,30.030,45.069,45.000,0.00,0.09,-272.69,-272.75,-10,13,2,17.3,0.6,-44.3,17.8,3.2,-27.4,5.73,2.44,-25.2,23.8
2015-02-05 01:32:00,0.0,1.96366,0.00036,406.877,0.035,0.0181,0.0013,140.000,45.000,27740.72136,1.96399,406.966,30.063,45.069,45.000,0.00,0.09,-272.69,-272.75,-11,13,2,17.3,0.6,-44.4,17.8,3.2,-27.4,5.73,2.57,-25.2,23.8
2015-02-05 01:33:00,0.0,1.96353,0.00041,406.877,0.028,0.0174,0.0017,140.001,45.000,27741.85287,1.96387,406.960,30.063,45.069,45.000,0.00,0.09,-272.69,-272.74,-11,13,2,17.4,0.6,-44.4,17.8,3.2,-27.4,5.73,2.50,-25.2,23.8
2015-02-05 01:34:00,0.0,1.96350,0.00039,406.895,0.032,0.0168,0.0013,140.000,45.000,27740.67081,1.96384,406.979,30.076,45.069,45.000,0.00,0.09,-272.69,-272.75,-11,13,2,17.4,0.6,-44.3,17.8,3.2,-27.4,5.73,2.46,-25.2,23.8
2015-02-05 01:35:00,0.0,1.96334,0.00038,406.870,0.022,0.0175,0.0021,139.999,45.000,27741.13739,1.96366,406.955,30.077,45.069,45.000,0.00,0.09,-272.69,-272.75,-11,13,2,17.4,0.6,-44.3,17.8,3.2,-27.4,5.73,2.59,-25.2,23.8
2015-02-05 01:36:00,0.0,1.96389,0.00037,406.870,0.028,0.0178,0.0021,139.999,45.000,27738.25308,1.96421,406.956,30.068,45.069,45.000,0.00,0.09,-272.69,-272.74,-10,13,2,17.4,0.6,-44.4,17.8,3.2,-27.4,5.73,2.46,-25.2,23.8
2015-02-05 01:37:00,0.0,1.96356,0.00041,406.854,0.034,0.0169,0.0022,139.998,45.000,27740.12421,1.96390,406.938,30.094,45.069,45.000,0.00,0.09,-272.69,-272.75,-11,13,2,17.4,0.6,-44.0,17.8,3.2,-27.4,5.73,2.51,-25.2,23.8
2015-02-05 01:38:00,0.0,1.96345,0.00036,406.896,0.031,0.0167,0.0017,139.997,45.000,27739.28851,1.96380,406.977,30.114,45.069,45.000,0.00,0.09,-272.70,-272.74,-10,13,2,17.4,0.6,-43.9,17.8,3.2,-27.4,5.73,2.56,-25.2,23.8
2015-02-05 01:39:00,0.0,1.96364,0.00037,406.865,0.035,0.0184,0.0017,140.002,45.000,27740.84631,1.96397,406.955,30.117,45.068,45.000,0.00,0.09,-272.68,-272.75,-11,13,2,17.4,0.6,-44.0,17.8,3.2,-27.4,5.73,2.43,-25.2,23.8
2015-02-05 01:40:00,0.0,1.96356,0.00041,406.840,0.034,0.0184,0.0014,140.003,45.000,27741.83844,1.96393,406.932,30.115,45.069,45.000,0.00,0.09,-272.69,-272.75,-11,13,2,17.4,0.6,-43.9,17.8,3.2,-27.4,5.73,2.55,-25.2,23.8
2015-02-05 01:41:00,0.0,1.96338,0.00036,406.855,0.026,0.0181,0.0021,140.001,45.000,27741.93533,1.96374,406.943,30.107,45.069,45.000,0.00,0.09,-272.69,-272.75,-11,13,2,17.4,0.6,-43.8,17.8,3.2,-27.4,5.73,2.51,-25.2,23.8
2015-02-05 01:42:00,0.0,1.96321,0.00035,406.862,0.038,0.0178,0.0019,139.998,45.000,27741.83887,1.96357,406.948,30.112,45.069,45.000,0.00,0.09,-272.68,-272.75,-11,13,2,17.3,0.6,-44.3,17.8,3.2,-27.4,5.73,2.45,-25.2,23.8
2015-02-05 01:43:00,0.0,1.96289,0.00036,406.841,0.033,0.0172,0.0014,139.999,45.000,27743.12305,1.96323,406.926,30.125,45.069,45.000,0.00,0.09,-272.69,-272.74,-10,13,2,17.3,0.6,-44.4,17.8,3.2,-27.4,5.73,2.58,-25.2,23.8
2015-02-05 01:44:00,0.0,1.96291,0.00026,406.838,0.028,0.0177,0.0021,140.002,45.000,27743.89952,1.96325,406.925,30.122,45.069,45.000,0.00,0.09,-272.69,-272.75,-11,13,2,17.3,0.6,-44.2,17.8,3.2,-27.4,5.73,2.46,-25.2,23.8
2015-02-05 01:45:00,0.0,1.96294,0.00034,406.838,0.019,0.0175,0.0014,139.999,45.000,27742.38191,1.96324,406.924,30.112,45.069,45.000,0.00,0.09,-272.69,-272.74,-10,13,2,17.3,0.6,-44.2,17.8,3.2,-27.4,5.73,2.50,-25.2,23.8
2015-02-05 01:46:00,0.0,1.96320,0.00046,406.870,0.026,0.0183,0.0018,139.994,45.000,27740.28960,1.96358,406.960,30.124,45.069,45.000,0.00,0.09,-272.69,-272.74,-11,13,2,17.3,0.6,-44.3,17.8,3.2,-27.4,5.73,2.56,-25.2,23.7